Time,TemperatureF,DewpointF,PressureIn,WindDirection,WindDirectionDegrees,WindSpeedMPH,WindSpeedGustMPH,Humidity,HourlyPrecipIn,Conditions,Clouds,dailyrainin,SoftwareType,DateUTC
2013-01-24 00:00:00,50.0,46.3,30.29,NNW,331,0.0,1.0,87,0.00,,,0.00,Weather View 32 v70,2013-01-24 05:00:00,
2013-01-24 00:02:00,50.0,46.3,30.29,NNW,332,0.0,1.0,87,0.00,,,0.00,Weather View 32 v70,2013-01-24 05:02:00,
2013-01-24 00:07:00,50.0,46.0,30.29,NNW,332,0.0,1.0,86,0.00,,,0.00,Weather View 32 v70,2013-01-24 05:07:00,
2013-01-24 00:12:00,50.0,46.0,30.29,NNW,332,0.0,3.0,86,0.00,,,0.00,Weather View 32 v70,2013-01-24 05:12:00,
2013-01-24 00:17:00,51.0,47.0,30.29,NNW,332,0.0,3.0,86,0.00,,,0.00,Weather View 32 v70,2013-01-24 05:17:00,
2013-01-24 00:22:00,51.0,46.6,30.29,NNW,331,0.0,3.0,85,0.00,,,0.00,Weather View 32 v70,2013-01-24 05:22:00,
2013-01-24 00:27:00,51.0,46.3,30.29,NNW,332,0.0,3.0,84,0.00,,,0.00,Weather View 32 v70,2013-01-24 05:27:00,
2013-01-24 00:32:00,51.0,46.0,30.29,NNW,332,0.0,3.0,83,0.00,,,0.00,Weather View 32 v70,2013-01-24 05:32:00,
2013-01-24 00:37:00,51.0,45.4,30.29,NNW,331,0.0,3.0,81,0.00,,,0.00,Weather View 32 v70,2013-01-24 05:37:00,
2013-01-24 00:42:00,51.0,45.0,30.29,NNW,332,0.0,3.0,80,0.00,,,0.00,Weather View 32 v70,2013-01-24 05:42:00,
2013-01-24 00:47:00,51.0,44.7,30.29,NNW,331,0.0,3.0,79,0.00,,,0.00,Weather View 32 v70,2013-01-24 05:47:00,
2013-01-24 00:52:00,51.0,44.4,30.29,NNW,332,0.0,3.0,78,0.00,,,0.00,Weather View 32 v70,2013-01-24 05:52:00,
2013-01-24 00:57:00,51.0,43.7,30.28,NNW,333,0.0,3.0,76,0.00,,,0.00,Weather View 32 v70,2013-01-24 05:57:00,
2013-01-24 01:00:00,50.0,42.7,30.28,NNW,333,0.0,3.0,76,0.00,,,0.00,Weather View 32 v70,2013-01-24 06:00:00,
2013-01-24 01:02:00,51.0,43.3,30.29,NNW,333,0.0,3.0,75,0.00,,,0.00,Weather View 32 v70,2013-01-24 06:02:00,
2013-01-24 01:07:00,51.0,43.3,30.29,NNW,335,0.0,3.0,75,0.00,,,0.00,Weather View 32 v70,2013-01-24 06:07:00,
2013-01-24 01:12:00,51.0,43.0,30.29,NNW,335,0.0,3.0,74,0.00,,,0.00,Weather View 32 v70,2013-01-24 06:12:00,
2013-01-24 01:17:00,51.0,43.0,30.28,NNW,335,0.0,3.0,74,0.00,,,0.00,Weather View 32 v70,2013-01-24 06:17:00,
2013-01-24 01:22:00,51.0,43.0,30.28,NNW,335,0.0,3.0,74,0.00,,,0.00,Weather View 32 v70,2013-01-24 06:22:00,
2013-01-24 01:27:00,51.0,43.0,30.28,NNW,334,0.0,3.0,74,0.00,,,0.00,Weather View 32 v70,2013-01-24 06:27:00,
2013-01-24 01:32:00,50.0,42.4,30.28,NNW,335,0.0,3.0,75,0.00,,,0.00,Weather View 32 v70,2013-01-24 06:32:00,
2013-01-24 01:37:00,50.0,42.7,30.28,NNW,334,0.0,3.0,76,0.00,,,0.00,Weather View 32 v70,2013-01-24 06:37:00,
2013-01-24 01:42:00,50.0,42.7,30.28,NNW,342,1.0,4.0,76,0.00,,,0.00,Weather View 32 v70,2013-01-24 06:42:00,
2013-01-24 01:47:00,50.0,42.7,30.27,NNW,341,2.0,4.0,76,0.00,,,0.00,Weather View 32 v70,2013-01-24 06:47:00,
2013-01-24 01:52:00,51.0,43.7,30.27,North,355,0.0,4.0,76,0.00,,,0.00,Weather View 32 v70,2013-01-24 06:52:00,
2013-01-24 01:57:00,51.0,43.7,30.26,North,355,0.0,4.0,76,0.00,,,0.00,Weather View 32 v70,2013-01-24 06:57:00,
2013-01-24 02:00:00,51.0,43.7,30.26,North,355,0.0,4.0,76,0.00,,,0.00,Weather View 32 v70,2013-01-24 07:00:00,
2013-01-24 02:02:00,51.0,44.0,30.26,North,360,0.0,4.0,77,0.00,,,0.00,Weather View 32 v70,2013-01-24 07:02:00,
2013-01-24 02:07:00,51.0,43.7,30.26,ENE,77,0.0,5.0,76,0.00,,,0.00,Weather View 32 v70,2013-01-24 07:07:00,
2013-01-24 02:12:00,51.0,43.7,30.25,ENE,78,0.0,5.0,76,0.00,,,0.00,Weather View 32 v70,2013-01-24 07:12:00,
2013-01-24 02:17:00,51.0,43.7,30.25,ENE,78,0.0,5.0,76,0.00,,,0.00,Weather View 32 v70,2013-01-24 07:17:00,
2013-01-24 02:22:00,51.0,44.0,30.25,ENE,78,0.0,5.0,77,0.00,,,0.00,Weather View 32 v70,2013-01-24 07:22:00,
2013-01-24 02:27:00,51.0,44.0,30.25,ENE,78,0.0,5.0,77,0.00,,,0.00,Weather View 32 v70,2013-01-24 07:27:00,
2013-01-24 02:32:00,51.0,44.4,30.25,ENE,78,0.0,5.0,78,0.00,,,0.00,Weather View 32 v70,2013-01-24 07:32:00,
2013-01-24 02:37:00,50.0,43.4,30.25,ENE,78,0.0,5.0,78,0.00,,,0.00,Weather View 32 v70,2013-01-24 07:37:00,
2013-01-24 02:43:00,50.0,43.4,30.25,ENE,78,0.0,5.0,78,0.00,,,0.00,Weather View 32 v70,2013-01-24 07:43:00,
2013-01-24 02:48:00,50.0,43.4,30.25,ENE,78,0.0,5.0,78,0.00,,,0.00,Weather View 32 v70,2013-01-24 07:48:00,
2013-01-24 02:53:00,50.0,43.7,30.25,ENE,78,0.0,5.0,79,0.00,,,0.00,Weather View 32 v70,2013-01-24 07:53:00,
2013-01-24 02:58:00,49.0,43.1,30.25,ENE,78,0.0,5.0,80,0.00,,,0.00,Weather View 32 v70,2013-01-24 07:58:00,
2013-01-24 03:00:00,49.0,43.1,30.25,ENE,78,0.0,5.0,80,0.00,,,0.00,Weather View 32 v70,2013-01-24 08:00:00,
2013-01-24 03:03:00,49.0,43.4,30.25,ENE,78,0.0,5.0,81,0.00,,,0.00,Weather View 32 v70,2013-01-24 08:03:00,
2013-01-24 03:08:00,48.0,42.8,30.25,ENE,78,0.0,3.0,82,0.00,,,0.00,Weather View 32 v70,2013-01-24 08:08:00,
2013-01-24 03:13:00,48.0,42.8,30.25,ENE,78,0.0,3.0,82,0.00,,,0.00,Weather View 32 v70,2013-01-24 08:13:00,
2013-01-24 03:18:00,48.0,43.1,30.25,ENE,78,0.0,3.0,83,0.00,,,0.00,Weather View 32 v70,2013-01-24 08:18:00,
2013-01-24 03:23:00,47.0,42.1,30.25,ENE,78,0.0,3.0,83,0.00,,,0.00,Weather View 32 v70,2013-01-24 08:23:00,
2013-01-24 03:28:00,47.0,42.4,30.25,ENE,78,0.0,3.0,84,0.00,,,0.00,Weather View 32 v70,2013-01-24 08:28:00,
2013-01-24 03:33:00,47.0,42.4,30.24,ENE,78,0.0,0.0,84,0.00,,,0.00,Weather View 32 v70,2013-01-24 08:33:00,
2013-01-24 03:38:00,46.0,41.7,30.24,ENE,78,0.0,0.0,85,0.00,,,0.00,Weather View 32 v70,2013-01-24 08:38:00,
2013-01-24 03:43:00,46.0,41.7,30.24,ENE,78,0.0,0.0,85,0.00,,,0.00,Weather View 32 v70,2013-01-24 08:43:00,
2013-01-24 03:48:00,46.0,42.0,30.24,ENE,78,0.0,0.0,86,0.00,,,0.00,Weather View 32 v70,2013-01-24 08:48:00,
2013-01-24 03:53:00,46.0,42.0,30.24,ENE,78,0.0,0.0,86,0.00,,,0.00,Weather View 32 v70,2013-01-24 08:53:00,
2013-01-24 03:58:00,46.0,42.3,30.24,ENE,78,0.0,0.0,87,0.00,,,0.00,Weather View 32 v70,2013-01-24 08:58:00,
2013-01-24 04:00:00,46.0,42.3,30.24,ENE,78,0.0,0.0,87,0.00,,,0.00,Weather View 32 v70,2013-01-24 09:00:00,
2013-01-24 04:03:00,46.0,42.3,30.24,ENE,78,0.0,0.0,87,0.00,,,0.00,Weather View 32 v70,2013-01-24 09:03:00,
2013-01-24 04:08:00,45.0,41.4,30.24,ENE,78,0.0,0.0,87,0.00,,,0.00,Weather View 32 v70,2013-01-24 09:08:00,
2013-01-24 04:13:00,45.0,41.4,30.24,ENE,78,0.0,0.0,87,0.00,,,0.00,Weather View 32 v70,2013-01-24 09:13:00,
2013-01-24 04:18:00,45.0,41.7,30.24,ENE,78,0.0,0.0,88,0.00,,,0.00,Weather View 32 v70,2013-01-24 09:18:00,
2013-01-24 04:23:00,45.0,41.7,30.25,ENE,78,0.0,0.0,88,0.00,,,0.00,Weather View 32 v70,2013-01-24 09:23:00,
2013-01-24 04:28:00,45.0,41.7,30.25,ENE,78,0.0,0.0,88,0.00,,,0.00,Weather View 32 v70,2013-01-24 09:28:00,
2013-01-24 04:33:00,45.0,41.9,30.25,ENE,78,0.0,0.0,89,0.00,,,0.00,Weather View 32 v70,2013-01-24 09:33:00,
2013-01-24 04:38:00,45.0,41.9,30.25,ENE,78,0.0,0.0,89,0.00,,,0.00,Weather View 32 v70,2013-01-24 09:38:00,
2013-01-24 04:43:00,45.0,41.9,30.25,ENE,78,0.0,0.0,89,0.00,,,0.00,Weather View 32 v70,2013-01-24 09:43:00,
2013-01-24 04:48:00,45.0,41.9,30.25,ENE,78,0.0,0.0,89,0.00,,,0.00,Weather View 32 v70,2013-01-24 09:48:00,
2013-01-24 04:53:00,45.0,42.2,30.26,ENE,78,0.0,0.0,90,0.00,,,0.00,Weather View 32 v70,2013-01-24 09:53:00,
2013-01-24 04:58:00,45.0,42.2,30.26,ENE,76,0.0,0.0,90,0.00,,,0.00,Weather View 32 v70,2013-01-24 09:58:00,
2013-01-24 05:00:00,45.0,41.9,30.26,ENE,78,0.0,0.0,89,0.00,,,0.00,Weather View 32 v70,2013-01-24 10:00:00,
2013-01-24 05:03:00,44.0,41.0,30.26,ENE,78,0.0,0.0,89,0.00,,,0.00,Weather View 32 v70,2013-01-24 10:03:00,
2013-01-24 05:08:00,44.0,41.0,30.26,ENE,78,0.0,0.0,89,0.00,,,0.00,Weather View 32 v70,2013-01-24 10:08:00,
2013-01-24 05:13:00,44.0,41.0,30.26,ENE,78,0.0,0.0,89,0.00,,,0.00,Weather View 32 v70,2013-01-24 10:13:00,
2013-01-24 05:18:00,44.0,41.0,30.26,ENE,78,0.0,0.0,89,0.00,,,0.00,Weather View 32 v70,2013-01-24 10:18:00,
2013-01-24 05:23:00,44.0,41.3,30.26,ENE,78,0.0,0.0,90,0.00,,,0.00,Weather View 32 v70,2013-01-24 10:23:00,
2013-01-24 05:28:00,44.0,41.3,30.26,ENE,78,0.0,0.0,90,0.00,,,0.00,Weather View 32 v70,2013-01-24 10:28:00,
2013-01-24 05:34:00,44.0,41.3,30.26,ENE,78,0.0,0.0,90,0.00,,,0.00,Weather View 32 v70,2013-01-24 10:34:00,
2013-01-24 05:39:00,43.0,40.3,30.27,ENE,78,0.0,0.0,90,0.00,,,0.00,Weather View 32 v70,2013-01-24 10:39:00,
2013-01-24 05:44:00,43.0,40.3,30.27,ENE,78,0.0,0.0,90,0.00,,,0.00,Weather View 32 v70,2013-01-24 10:44:00,
2013-01-24 05:49:00,43.0,40.3,30.27,ENE,78,0.0,0.0,90,0.00,,,0.00,Weather View 32 v70,2013-01-24 10:49:00,
2013-01-24 05:54:00,43.0,40.3,30.27,ENE,78,0.0,0.0,90,0.00,,,0.00,Weather View 32 v70,2013-01-24 10:54:00,
2013-01-24 05:59:00,43.0,40.3,30.27,ENE,78,0.0,0.0,90,0.00,,,0.00,Weather View 32 v70,2013-01-24 10:59:00,
2013-01-24 06:00:00,43.0,40.3,30.27,ENE,78,0.0,0.0,90,0.00,,,0.00,Weather View 32 v70,2013-01-24 11:00:00,
2013-01-24 06:04:00,43.0,40.5,30.27,ENE,78,0.0,0.0,91,0.00,,,0.00,Weather View 32 v70,2013-01-24 11:04:00,
2013-01-24 06:09:00,43.0,40.5,30.27,ENE,77,0.0,0.0,91,0.00,,,0.00,Weather View 32 v70,2013-01-24 11:09:00,
2013-01-24 06:14:00,42.0,39.6,30.28,ENE,78,0.0,0.0,91,0.00,,,0.00,Weather View 32 v70,2013-01-24 11:14:00,
2013-01-24 06:19:00,42.0,39.6,30.27,ENE,78,0.0,0.0,91,0.00,,,0.00,Weather View 32 v70,2013-01-24 11:19:00,
2013-01-24 06:24:00,42.0,39.6,30.28,ENE,77,0.0,0.0,91,0.00,,,0.00,Weather View 32 v70,2013-01-24 11:24:00,
2013-01-24 06:29:00,42.0,39.6,30.28,ENE,78,0.0,0.0,91,0.00,,,0.00,Weather View 32 v70,2013-01-24 11:29:00,
2013-01-24 06:34:00,42.0,39.6,30.28,ENE,77,0.0,0.0,91,0.00,,,0.00,Weather View 32 v70,2013-01-24 11:34:00,
2013-01-24 06:39:00,42.0,39.6,30.28,ENE,78,0.0,0.0,91,0.00,,,0.00,Weather View 32 v70,2013-01-24 11:39:00,
2013-01-24 06:44:00,42.0,39.6,30.28,ENE,76,0.0,0.0,91,0.00,,,0.00,Weather View 32 v70,2013-01-24 11:44:00,
2013-01-24 06:49:00,42.0,39.8,30.27,ENE,78,0.0,0.0,92,0.00,,,0.00,Weather View 32 v70,2013-01-24 11:49:00,
2013-01-24 06:54:00,42.0,39.8,30.27,ENE,76,0.0,0.0,92,0.00,,,0.00,Weather View 32 v70,2013-01-24 11:54:00,
2013-01-24 06:59:00,42.0,39.8,30.28,ENE,78,0.0,0.0,92,0.00,,,0.00,Weather View 32 v70,2013-01-24 11:59:00,
2013-01-24 07:00:00,42.0,39.8,30.28,ENE,78,0.0,0.0,92,0.00,,,0.00,Weather View 32 v70,2013-01-24 12:00:00,
2013-01-24 07:04:00,42.0,39.8,30.28,ENE,78,0.0,0.0,92,0.00,,,0.00,Weather View 32 v70,2013-01-24 12:04:00,
2013-01-24 07:09:00,42.0,39.8,30.28,ENE,78,0.0,0.0,92,0.00,,,0.00,Weather View 32 v70,2013-01-24 12:09:00,
2013-01-24 07:14:00,42.0,39.8,30.28,ENE,78,0.0,0.0,92,0.00,,,0.00,Weather View 32 v70,2013-01-24 12:14:00,
2013-01-24 07:19:00,42.0,39.8,30.28,ENE,78,0.0,0.0,92,0.00,,,0.00,Weather View 32 v70,2013-01-24 12:19:00,
2013-01-24 07:24:00,42.0,39.8,30.28,ENE,78,0.0,0.0,92,0.00,,,0.00,Weather View 32 v70,2013-01-24 12:24:00,
2013-01-24 07:29:00,42.0,40.1,30.28,ENE,76,0.0,0.0,93,0.00,,,0.00,Weather View 32 v70,2013-01-24 12:29:00,
2013-01-24 07:34:00,42.0,39.8,30.29,ENE,78,0.0,0.0,92,0.00,,,0.00,Weather View 32 v70,2013-01-24 12:34:00,
2013-01-24 07:39:00,43.0,40.8,30.29,ENE,78,0.0,0.0,92,0.00,,,0.00,Weather View 32 v70,2013-01-24 12:39:00,
2013-01-24 07:44:00,43.0,40.8,30.29,ENE,78,0.0,0.0,92,0.00,,,0.00,Weather View 32 v70,2013-01-24 12:44:00,
2013-01-24 07:49:00,43.0,41.1,30.29,ENE,78,0.0,0.0,93,0.00,,,0.00,Weather View 32 v70,2013-01-24 12:49:00,
2013-01-24 07:54:00,43.0,41.1,30.29,ENE,77,0.0,0.0,93,0.00,,,0.00,Weather View 32 v70,2013-01-24 12:54:00,
2013-01-24 07:59:00,44.0,42.1,30.29,ENE,78,0.0,0.0,93,0.00,,,0.00,Weather View 32 v70,2013-01-24 12:59:00,
2013-01-24 08:00:00,44.0,42.1,30.28,ENE,78,0.0,0.0,93,0.00,,,0.00,Weather View 32 v70,2013-01-24 13:00:00,
2013-01-24 08:04:00,44.0,42.4,30.29,ENE,78,0.0,0.0,94,0.00,,,0.00,Weather View 32 v70,2013-01-24 13:04:00,
2013-01-24 08:09:00,45.0,43.4,30.29,ENE,78,0.0,0.0,94,0.00,,,0.00,Weather View 32 v70,2013-01-24 13:09:00,
2013-01-24 08:14:00,46.0,44.4,30.30,ENE,78,0.0,1.0,94,0.00,,,0.00,Weather View 32 v70,2013-01-24 13:14:00,
2013-01-24 08:19:00,47.0,45.4,30.29,ENE,76,1.0,1.0,94,0.00,,,0.00,Weather View 32 v70,2013-01-24 13:19:00,
2013-01-24 08:24:00,49.0,47.1,30.30,ENE,76,0.0,4.0,93,0.00,,,0.00,Weather View 32 v70,2013-01-24 13:24:00,
2013-01-24 08:29:00,51.0,47.9,30.30,ENE,76,0.0,4.0,89,0.00,,,0.00,Weather View 32 v70,2013-01-24 13:29:00,
2013-01-24 08:34:00,52.0,47.6,30.30,ENE,68,0.0,4.0,85,0.00,,,0.00,Weather View 32 v70,2013-01-24 13:34:00,
2013-01-24 08:39:00,53.0,47.6,30.30,ENE,67,2.0,5.0,82,0.00,,,0.00,Weather View 32 v70,2013-01-24 13:39:00,
2013-01-24 08:44:00,54.0,48.3,30.30,ENE,67,3.0,5.0,81,0.00,,,0.00,Weather View 32 v70,2013-01-24 13:44:00,
2013-01-24 08:49:00,55.0,48.6,30.30,NNE,29,3.0,6.0,79,0.00,,,0.00,Weather View 32 v70,2013-01-24 13:49:00,
2013-01-24 08:54:00,55.0,48.6,30.30,NNE,32,3.0,6.0,79,0.00,,,0.00,Weather View 32 v70,2013-01-24 13:54:00,
2013-01-24 08:59:00,56.0,49.2,30.30,NNE,29,4.0,6.0,78,0.00,,,0.00,Weather View 32 v70,2013-01-24 13:59:00,
2013-01-24 09:00:00,56.0,49.2,30.30,NNE,19,3.0,6.0,78,0.00,,,0.00,Weather View 32 v70,2013-01-24 14:00:00,
2013-01-24 09:04:00,56.0,48.9,30.31,NE,40,1.0,6.0,77,0.00,,,0.00,Weather View 32 v70,2013-01-24 14:04:00,
2013-01-24 09:10:00,57.0,49.1,30.31,NE,43,2.0,7.0,75,0.00,,,0.00,Weather View 32 v70,2013-01-24 14:10:00,
2013-01-24 09:15:00,57.0,48.8,30.31,NNE,30,2.0,7.0,74,0.00,,,0.00,Weather View 32 v70,2013-01-24 14:15:00,
2013-01-24 09:20:00,57.0,48.8,30.31,NE,38,0.0,7.0,74,0.00,,,0.00,Weather View 32 v70,2013-01-24 14:20:00,
2013-01-24 09:25:00,58.0,49.0,30.32,NE,38,3.0,7.0,72,0.00,,,0.00,Weather View 32 v70,2013-01-24 14:25:00,
2013-01-24 09:30:00,59.0,49.2,30.32,NE,38,2.0,7.0,70,0.00,,,0.00,Weather View 32 v70,2013-01-24 14:30:00,
2013-01-24 09:35:00,60.0,49.8,30.32,NE,36,3.0,7.0,69,0.00,,,0.00,Weather View 32 v70,2013-01-24 14:35:00,
2013-01-24 09:40:00,60.0,49.4,30.32,NE,36,2.0,7.0,68,0.00,,,0.00,Weather View 32 v70,2013-01-24 14:40:00,
2013-01-24 09:45:00,61.0,49.5,30.33,NE,39,3.0,7.0,66,0.00,,,0.00,Weather View 32 v70,2013-01-24 14:45:00,
2013-01-24 09:50:00,61.0,49.1,30.33,NE,36,2.0,7.0,65,0.00,,,0.00,Weather View 32 v70,2013-01-24 14:50:00,
2013-01-24 09:55:00,61.0,48.7,30.33,NE,40,2.0,7.0,64,0.00,,,0.00,Weather View 32 v70,2013-01-24 14:55:00,
2013-01-24 10:00:00,62.0,48.8,30.33,NE,38,0.0,7.0,62,0.00,,,0.00,Weather View 32 v70,2013-01-24 15:00:00,
2013-01-24 10:05:00,63.0,48.9,30.33,NE,36,0.0,7.0,60,0.00,,,0.00,Weather View 32 v70,2013-01-24 15:05:00,
2013-01-24 10:10:00,64.0,49.3,30.33,NE,38,0.0,6.0,59,0.00,,,0.00,Weather View 32 v70,2013-01-24 15:10:00,
2013-01-24 10:15:00,65.0,49.8,30.33,NE,38,1.0,6.0,58,0.00,,,0.00,Weather View 32 v70,2013-01-24 15:15:00,
2013-01-24 10:20:00,65.0,47.4,30.33,NNE,29,0.0,5.0,53,0.00,,,0.00,Weather View 32 v70,2013-01-24 15:20:00,
2013-01-24 10:25:00,66.0,48.3,30.33,NE,37,3.0,8.0,53,0.00,,,0.00,Weather View 32 v70,2013-01-24 15:25:00,
2013-01-24 10:30:00,66.0,47.8,30.33,NE,36,0.0,8.0,52,0.00,,,0.00,Weather View 32 v70,2013-01-24 15:30:00,
2013-01-24 10:35:00,65.0,45.9,30.33,NNE,13,1.0,8.0,50,0.00,,,0.00,Weather View 32 v70,2013-01-24 15:35:00,
2013-01-24 10:40:00,66.0,47.8,30.33,NNE,21,3.0,8.0,52,0.00,,,0.00,Weather View 32 v70,2013-01-24 15:40:00,
2013-01-24 10:45:00,67.0,47.7,30.33,NNE,17,3.0,8.0,50,0.00,,,0.00,Weather View 32 v70,2013-01-24 15:45:00,
2013-01-24 10:50:00,67.0,47.2,30.34,NE,36,0.0,8.0,49,0.00,,,0.00,Weather View 32 v70,2013-01-24 15:50:00,
2013-01-24 10:55:00,67.0,48.2,30.34,NNE,26,1.0,8.0,51,0.00,,,0.00,Weather View 32 v70,2013-01-24 15:55:00,
2013-01-24 11:00:00,68.0,48.1,30.34,NNE,13,0.0,8.0,49,0.00,,,0.00,Weather View 32 v70,2013-01-24 16:00:00,
2013-01-24 11:05:00,68.0,48.6,30.33,NNE,23,1.0,8.0,50,0.00,,,0.00,Weather View 32 v70,2013-01-24 16:05:00,
2013-01-24 11:10:00,68.0,48.1,30.33,NNE,18,0.0,8.0,49,0.00,,,0.00,Weather View 32 v70,2013-01-24 16:10:00,
2013-01-24 11:15:00,68.0,48.1,30.33,NNE,19,0.0,8.0,49,0.00,,,0.00,Weather View 32 v70,2013-01-24 16:15:00,
2013-01-24 11:20:00,69.0,49.0,30.33,NW,323,4.0,8.0,49,0.00,,,0.00,Weather View 32 v70,2013-01-24 16:20:00,
2013-01-24 11:25:00,68.0,48.6,30.32,NW,325,3.0,8.0,50,0.00,,,0.00,Weather View 32 v70,2013-01-24 16:25:00,
2013-01-24 11:30:00,68.0,49.1,30.32,North,355,3.0,8.0,51,0.00,,,0.00,Weather View 32 v70,2013-01-24 16:30:00,
2013-01-24 11:35:00,69.0,49.0,30.32,North,355,0.0,8.0,49,0.00,,,0.00,Weather View 32 v70,2013-01-24 16:35:00,
2013-01-24 11:40:00,69.0,48.4,30.32,NNE,19,1.0,7.0,48,0.00,,,0.00,Weather View 32 v70,2013-01-24 16:40:00,
2013-01-24 11:45:00,69.0,49.0,30.31,NNE,19,2.0,7.0,49,0.00,,,0.00,Weather View 32 v70,2013-01-24 16:45:00,
2013-01-24 11:50:00,70.0,49.9,30.31,NNW,347,0.0,7.0,49,0.00,,,0.00,Weather View 32 v70,2013-01-24 16:50:00,
2013-01-24 11:55:00,70.0,49.9,30.30,NNW,348,0.0,7.0,49,0.00,,,0.00,Weather View 32 v70,2013-01-24 16:55:00,
2013-01-24 12:00:00,71.0,50.3,30.30,NNW,327,0.0,7.0,48,0.00,,,0.00,Weather View 32 v70,2013-01-24 17:00:00,
2013-01-24 12:05:00,71.0,49.7,30.30,NNW,336,0.0,7.0,47,0.00,,,0.00,Weather View 32 v70,2013-01-24 17:05:00,
2013-01-24 12:10:00,71.0,49.7,30.30,North,11,4.0,7.0,47,0.00,,,0.00,Weather View 32 v70,2013-01-24 17:10:00,
2013-01-24 12:15:00,71.0,49.7,30.30,NE,44,4.0,7.0,47,0.00,,,0.00,Weather View 32 v70,2013-01-24 17:15:00,
2013-01-24 12:20:00,71.0,49.1,30.30,NNE,32,0.0,7.0,46,0.00,,,0.00,Weather View 32 v70,2013-01-24 17:20:00,
2013-01-24 12:25:00,71.0,49.1,30.30,North,10,1.0,7.0,46,0.00,,,0.00,Weather View 32 v70,2013-01-24 17:25:00,
2013-01-24 12:30:00,71.0,49.1,30.30,NE,37,4.0,9.0,46,0.00,,,0.00,Weather View 32 v70,2013-01-24 17:30:00,
2013-01-24 12:35:00,71.0,49.1,30.30,NNE,24,4.0,9.0,46,0.00,,,0.00,Weather View 32 v70,2013-01-24 17:35:00,
2013-01-24 12:40:00,71.0,48.5,30.29,NNE,13,1.0,9.0,45,0.00,,,0.00,Weather View 32 v70,2013-01-24 17:40:00,
2013-01-24 12:45:00,71.0,47.3,30.29,NE,44,3.0,9.0,43,0.00,,,0.00,Weather View 32 v70,2013-01-24 17:45:00,
2013-01-24 12:50:00,70.0,47.6,30.29,NE,46,5.0,12.0,45,0.00,,,0.00,Weather View 32 v70,2013-01-24 17:50:00,
2013-01-24 12:55:00,70.0,48.2,30.28,WNW,293,3.0,12.0,46,0.00,,,0.00,Weather View 32 v70,2013-01-24 17:55:00,
2013-01-24 13:00:00,70.0,48.2,30.28,North,355,0.0,12.0,46,0.00,,,0.00,Weather View 32 v70,2013-01-24 18:00:00,
2013-01-24 13:06:00,70.0,47.0,30.28,NNE,21,1.0,12.0,44,0.00,,,0.00,Weather View 32 v70,2013-01-24 18:06:00,
2013-01-24 13:11:00,70.0,47.6,30.27,NNE,24,4.0,12.0,45,0.00,,,0.00,Weather View 32 v70,2013-01-24 18:11:00,
2013-01-24 13:16:00,70.0,47.6,30.27,NE,36,1.0,12.0,45,0.00,,,0.00,Weather View 32 v70,2013-01-24 18:16:00,
2013-01-24 13:21:00,70.0,48.8,30.27,NNW,336,0.0,12.0,47,0.00,,,0.00,Weather View 32 v70,2013-01-24 18:21:00,
2013-01-24 13:26:00,71.0,49.1,30.26,NNW,342,1.0,12.0,46,0.00,,,0.00,Weather View 32 v70,2013-01-24 18:26:00,
2013-01-24 13:31:00,72.0,50.6,30.26,NNW,334,1.0,12.0,47,0.00,,,0.00,Weather View 32 v70,2013-01-24 18:31:00,
2013-01-24 13:36:00,72.0,50.0,30.26,NNE,32,2.0,12.0,46,0.00,,,0.00,Weather View 32 v70,2013-01-24 18:36:00,
2013-01-24 13:41:00,72.0,51.2,30.25,NNE,14,0.0,12.0,48,0.00,,,0.00,Weather View 32 v70,2013-01-24 18:41:00,
2013-01-24 13:46:00,72.0,50.6,30.25,NNW,347,0.0,12.0,47,0.00,,,0.00,Weather View 32 v70,2013-01-24 18:46:00,
2013-01-24 13:51:00,72.0,50.0,30.25,NW,323,4.0,10.0,46,0.00,,,0.00,Weather View 32 v70,2013-01-24 18:51:00,
2013-01-24 13:56:00,72.0,50.0,30.25,NNE,13,0.0,8.0,46,0.00,,,0.00,Weather View 32 v70,2013-01-24 18:56:00,
2013-01-24 14:00:00,72.0,50.6,30.25,West,265,3.0,8.0,47,0.00,,,0.00,Weather View 32 v70,2013-01-24 19:00:00,
2013-01-24 14:01:00,72.0,50.6,30.25,West,269,1.0,8.0,47,0.00,,,0.00,Weather View 32 v70,2013-01-24 19:01:00,
2013-01-24 14:06:00,72.0,50.6,30.25,NNE,15,0.0,8.0,47,0.00,,,0.00,Weather View 32 v70,2013-01-24 19:06:00,
2013-01-24 14:11:00,72.0,50.6,30.25,NNW,342,0.0,8.0,47,0.00,,,0.00,Weather View 32 v70,2013-01-24 19:11:00,
2013-01-24 14:16:00,72.0,50.6,30.25,North,5,2.0,7.0,47,0.00,,,0.00,Weather View 32 v70,2013-01-24 19:16:00,
2013-01-24 14:21:00,72.0,50.6,30.25,NE,36,1.0,7.0,47,0.00,,,0.00,Weather View 32 v70,2013-01-24 19:21:00,
2013-01-24 14:26:00,72.0,50.6,30.25,NW,313,5.0,7.0,47,0.00,,,0.00,Weather View 32 v70,2013-01-24 19:26:00,
2013-01-24 14:31:00,72.0,50.6,30.25,WNW,299,4.0,7.0,47,0.00,,,0.00,Weather View 32 v70,2013-01-24 19:31:00,
2013-01-24 14:36:00,72.0,51.7,30.24,North,360,0.0,8.0,49,0.00,,,0.00,Weather View 32 v70,2013-01-24 19:36:00,
2013-01-24 14:41:00,72.0,50.0,30.24,North,360,1.0,8.0,46,0.00,,,0.00,Weather View 32 v70,2013-01-24 19:41:00,
2013-01-24 14:46:00,72.0,50.6,30.24,North,9,4.0,8.0,47,0.00,,,0.00,Weather View 32 v70,2013-01-24 19:46:00,
2013-01-24 14:51:00,72.0,51.7,30.24,North,5,0.0,8.0,49,0.00,,,0.00,Weather View 32 v70,2013-01-24 19:51:00,
2013-01-24 14:56:00,72.0,52.3,30.24,North,11,1.0,8.0,50,0.00,,,0.00,Weather View 32 v70,2013-01-24 19:56:00,
2013-01-24 15:00:00,72.0,51.2,30.24,NW,322,3.0,8.0,48,0.00,,,0.00,Weather View 32 v70,2013-01-24 20:00:00,
2013-01-24 15:01:00,72.0,51.7,30.24,NW,321,1.0,8.0,49,0.00,,,0.00,Weather View 32 v70,2013-01-24 20:01:00,
2013-01-24 15:06:00,72.0,52.3,30.24,NW,306,1.0,8.0,50,0.00,,,0.00,Weather View 32 v70,2013-01-24 20:06:00,
2013-01-24 15:11:00,71.0,51.9,30.24,West,271,3.0,8.0,51,0.00,,,0.00,Weather View 32 v70,2013-01-24 20:11:00,
2013-01-24 15:16:00,71.0,52.4,30.24,NNW,346,3.0,8.0,52,0.00,,,0.00,Weather View 32 v70,2013-01-24 20:16:00,
2013-01-24 15:21:00,71.0,52.4,30.24,West,265,5.0,8.0,52,0.00,,,0.00,Weather View 32 v70,2013-01-24 20:21:00,
2013-01-24 15:26:00,71.0,53.0,30.24,WNW,295,2.0,8.0,53,0.00,,,0.00,Weather View 32 v70,2013-01-24 20:26:00,
2013-01-24 15:31:00,71.0,54.0,30.24,WNW,299,0.0,8.0,55,0.00,,,0.00,Weather View 32 v70,2013-01-24 20:31:00,
2013-01-24 15:36:00,71.0,54.0,30.24,NNW,329,2.0,7.0,55,0.00,,,0.00,Weather View 32 v70,2013-01-24 20:36:00,
2013-01-24 15:41:00,71.0,54.0,30.24,NW,315,3.0,9.0,55,0.00,,,0.00,Weather View 32 v70,2013-01-24 20:41:00,
2013-01-24 15:46:00,70.0,53.0,30.24,WNW,292,0.0,9.0,55,0.00,,,0.00,Weather View 32 v70,2013-01-24 20:46:00,
2013-01-24 15:51:00,71.0,53.5,30.24,NNW,328,4.0,9.0,54,0.00,,,0.00,Weather View 32 v70,2013-01-24 20:51:00,
2013-01-24 15:56:00,70.0,53.0,30.24,NNW,343,0.0,9.0,55,0.00,,,0.00,Weather View 32 v70,2013-01-24 20:56:00,
2013-01-24 16:00:00,70.0,53.0,30.24,North,351,1.0,9.0,55,0.00,,,0.00,Weather View 32 v70,2013-01-24 21:00:00,
2013-01-24 16:01:00,70.0,53.0,30.24,NNW,329,0.0,9.0,55,0.00,,,0.00,Weather View 32 v70,2013-01-24 21:01:00,
2013-01-24 16:06:00,70.0,52.5,30.24,WNW,301,4.0,9.0,54,0.00,,,0.00,Weather View 32 v70,2013-01-24 21:06:00,
2013-01-24 16:11:00,70.0,53.0,30.24,NNW,342,0.0,9.0,55,0.00,,,0.00,Weather View 32 v70,2013-01-24 21:11:00,
2013-01-24 16:16:00,70.0,52.5,30.24,NW,314,0.0,9.0,54,0.00,,,0.00,Weather View 32 v70,2013-01-24 21:16:00,
2013-01-24 16:21:00,70.0,52.5,30.25,NNW,345,4.0,9.0,54,0.00,,,0.00,Weather View 32 v70,2013-01-24 21:21:00,
2013-01-24 16:26:00,69.0,51.6,30.24,NNE,22,2.0,9.0,54,0.00,,,0.00,Weather View 32 v70,2013-01-24 21:26:00,
2013-01-24 16:31:00,69.0,52.6,30.24,NNE,29,0.0,9.0,56,0.00,,,0.00,Weather View 32 v70,2013-01-24 21:31:00,
2013-01-24 16:36:00,69.0,52.6,30.25,NNW,336,0.0,9.0,56,0.00,,,0.00,Weather View 32 v70,2013-01-24 21:36:00,
2013-01-24 16:41:00,69.0,52.6,30.25,North,350,0.0,9.0,56,0.00,,,0.00,Weather View 32 v70,2013-01-24 21:41:00,
2013-01-24 16:46:00,69.0,52.6,30.25,NNE,13,0.0,9.0,56,0.00,,,0.00,Weather View 32 v70,2013-01-24 21:46:00,
2013-01-24 16:51:00,68.0,52.6,30.25,NNW,344,0.0,9.0,58,0.00,,,0.00,Weather View 32 v70,2013-01-24 21:51:00,
2013-01-24 16:57:00,68.0,53.1,30.25,North,350,2.0,9.0,59,0.00,,,0.00,Weather View 32 v70,2013-01-24 21:57:00,
2013-01-24 17:00:00,68.0,53.6,30.25,North,349,0.0,9.0,60,0.00,,,0.00,Weather View 32 v70,2013-01-24 22:00:00,
2013-01-24 17:02:00,68.0,53.6,30.25,North,349,2.0,9.0,60,0.00,,,0.00,Weather View 32 v70,2013-01-24 22:02:00,
2013-01-24 17:07:00,68.0,53.6,30.24,North,350,0.0,9.0,60,0.00,,,0.00,Weather View 32 v70,2013-01-24 22:07:00,
2013-01-24 17:12:00,68.0,53.6,30.25,NNW,341,1.0,9.0,60,0.00,,,0.00,Weather View 32 v70,2013-01-24 22:12:00,
2013-01-24 17:17:00,68.0,54.5,30.24,NNW,345,0.0,9.0,62,0.00,,,0.00,Weather View 32 v70,2013-01-24 22:17:00,
2013-01-24 17:22:00,67.0,54.0,30.24,North,349,0.0,9.0,63,0.00,,,0.00,Weather View 32 v70,2013-01-24 22:22:00,
2013-01-24 17:27:00,67.0,54.4,30.24,NNW,338,3.0,7.0,64,0.00,,,0.00,Weather View 32 v70,2013-01-24 22:27:00,
2013-01-24 17:32:00,66.0,53.4,30.24,NNW,336,0.0,7.0,64,0.00,,,0.00,Weather View 32 v70,2013-01-24 22:32:00,
2013-01-24 17:37:00,66.0,54.3,30.25,NNW,337,0.0,7.0,66,0.00,,,0.00,Weather View 32 v70,2013-01-24 22:37:00,
2013-01-24 17:42:00,66.0,54.7,30.25,NNW,338,3.0,7.0,67,0.00,,,0.00,Weather View 32 v70,2013-01-24 22:42:00,
2013-01-24 17:47:00,66.0,54.7,30.25,NNW,336,0.0,7.0,67,0.00,,,0.00,Weather View 32 v70,2013-01-24 22:47:00,
2013-01-24 17:52:00,65.0,54.6,30.24,NNW,336,0.0,7.0,69,0.00,,,0.00,Weather View 32 v70,2013-01-24 22:52:00,
2013-01-24 17:57:00,65.0,54.6,30.24,NNW,328,0.0,6.0,69,0.00,,,0.00,Weather View 32 v70,2013-01-24 22:57:00,
2013-01-24 18:00:00,65.0,54.9,30.24,NNW,329,0.0,6.0,70,0.00,,,0.00,Weather View 32 v70,2013-01-24 23:00:00,
2013-01-24 18:02:00,64.0,54.0,30.24,NNW,329,0.0,6.0,70,0.00,,,0.00,Weather View 32 v70,2013-01-24 23:02:00,
2013-01-24 18:07:00,64.0,54.4,30.25,NNW,329,0.0,6.0,71,0.00,,,0.00,Weather View 32 v70,2013-01-24 23:07:00,
2013-01-24 18:12:00,64.0,54.8,30.25,NNW,329,0.0,6.0,72,0.00,,,0.00,Weather View 32 v70,2013-01-24 23:12:00,
2013-01-24 18:17:00,64.0,54.8,30.25,NNW,329,0.0,6.0,72,0.00,,,0.00,Weather View 32 v70,2013-01-24 23:17:00,
2013-01-24 18:22:00,63.0,54.2,30.25,NNW,329,0.0,5.0,73,0.00,,,0.00,Weather View 32 v70,2013-01-24 23:22:00,
2013-01-24 18:27:00,63.0,54.6,30.25,NNW,329,0.0,4.0,74,0.00,,,0.00,Weather View 32 v70,2013-01-24 23:27:00,
2013-01-24 18:32:00,63.0,54.9,30.25,NNW,329,0.0,4.0,75,0.00,,,0.00,Weather View 32 v70,2013-01-24 23:32:00,
2013-01-24 18:37:00,63.0,54.9,30.25,NNW,328,0.0,4.0,75,0.00,,,0.00,Weather View 32 v70,2013-01-24 23:37:00,
2013-01-24 18:42:00,62.0,54.3,30.25,NNW,329,0.0,4.0,76,0.00,,,0.00,Weather View 32 v70,2013-01-24 23:42:00,
2013-01-24 18:47:00,62.0,54.7,30.25,NNW,329,0.0,3.0,77,0.00,,,0.00,Weather View 32 v70,2013-01-24 23:47:00,
2013-01-24 18:52:00,62.0,54.7,30.25,NNW,328,0.0,3.0,77,0.00,,,0.00,Weather View 32 v70,2013-01-24 23:52:00,
2013-01-24 18:57:00,62.0,55.0,30.25,NNW,327,0.0,2.0,78,0.00,,,0.00,Weather View 32 v70,2013-01-24 23:57:00,
2013-01-24 19:00:00,62.0,55.0,30.25,NNW,329,0.0,2.0,78,0.00,,,0.00,Weather View 32 v70,2013-01-25 00:00:00,
2013-01-24 19:02:00,62.0,55.0,30.25,NNW,329,0.0,2.0,78,0.00,,,0.00,Weather View 32 v70,2013-01-25 00:02:00,
2013-01-24 19:07:00,61.0,54.4,30.25,NNW,329,0.0,2.0,79,0.00,,,0.00,Weather View 32 v70,2013-01-25 00:07:00,
2013-01-24 19:12:00,61.0,54.4,30.26,NNW,329,0.0,2.0,79,0.00,,,0.00,Weather View 32 v70,2013-01-25 00:12:00,
2013-01-24 19:17:00,61.0,54.8,30.26,NNW,328,0.0,2.0,80,0.00,,,0.00,Weather View 32 v70,2013-01-25 00:17:00,
2013-01-24 19:22:00,61.0,54.8,30.26,NNW,327,0.0,2.0,80,0.00,,,0.00,Weather View 32 v70,2013-01-25 00:22:00,
2013-01-24 19:27:00,61.0,54.8,30.26,NNW,328,0.0,2.0,80,0.00,,,0.00,Weather View 32 v70,2013-01-25 00:27:00,
2013-01-24 19:32:00,60.0,54.1,30.26,NNW,328,0.0,1.0,81,0.00,,,0.00,Weather View 32 v70,2013-01-25 00:32:00,
2013-01-24 19:37:00,60.0,54.1,30.26,NNW,328,0.0,1.0,81,0.00,,,0.00,Weather View 32 v70,2013-01-25 00:37:00,
2013-01-24 19:42:00,60.0,54.1,30.26,NNW,329,0.0,1.0,81,0.00,,,0.00,Weather View 32 v70,2013-01-25 00:42:00,
2013-01-24 19:47:00,60.0,54.1,30.26,NNW,328,0.0,1.0,81,0.00,,,0.00,Weather View 32 v70,2013-01-25 00:47:00,
2013-01-24 19:52:00,60.0,53.8,30.26,NNW,329,0.0,1.0,80,0.00,,,0.00,Weather View 32 v70,2013-01-25 00:52:00,
2013-01-24 19:57:00,60.0,53.8,30.26,NNW,329,0.0,2.0,80,0.00,,,0.00,Weather View 32 v70,2013-01-25 00:57:00,
2013-01-24 20:00:00,60.0,53.8,30.27,NNW,329,0.0,2.0,80,0.00,,,0.00,Weather View 32 v70,2013-01-25 01:00:00,
2013-01-24 20:02:00,60.0,53.8,30.27,NNW,329,0.0,2.0,80,0.00,,,0.00,Weather View 32 v70,2013-01-25 01:02:00,
2013-01-24 20:07:00,60.0,53.8,30.27,NNW,329,0.0,2.0,80,0.00,,,0.00,Weather View 32 v70,2013-01-25 01:07:00,
2013-01-24 20:12:00,60.0,54.1,30.27,NNW,329,0.0,2.0,81,0.00,,,0.00,Weather View 32 v70,2013-01-25 01:12:00,
2013-01-24 20:17:00,60.0,54.1,30.27,NNW,329,0.0,2.0,81,0.00,,,0.00,Weather View 32 v70,2013-01-25 01:17:00,
2013-01-24 20:22:00,60.0,54.1,30.27,NNW,329,0.0,2.0,81,0.00,,,0.00,Weather View 32 v70,2013-01-25 01:22:00,
2013-01-24 20:27:00,60.0,54.5,30.27,NNW,329,0.0,2.0,82,0.00,,,0.00,Weather View 32 v70,2013-01-25 01:27:00,
2013-01-24 20:32:00,60.0,54.5,30.27,NNW,329,0.0,2.0,82,0.00,,,0.00,Weather View 32 v70,2013-01-25 01:32:00,
2013-01-24 20:37:00,60.0,54.8,30.27,NNW,329,0.0,2.0,83,0.00,,,0.00,Weather View 32 v70,2013-01-25 01:37:00,
2013-01-24 20:42:00,59.0,53.8,30.27,NNW,329,0.0,2.0,83,0.00,,,0.00,Weather View 32 v70,2013-01-25 01:42:00,
2013-01-24 20:47:00,59.0,53.8,30.27,NNW,329,0.0,2.0,83,0.00,,,0.00,Weather View 32 v70,2013-01-25 01:47:00,
2013-01-24 20:52:00,59.0,54.2,30.27,NNW,329,0.0,2.0,84,0.00,,,0.00,Weather View 32 v70,2013-01-25 01:52:00,
2013-01-24 20:58:00,59.0,54.2,30.27,NNW,329,0.0,1.0,84,0.00,,,0.00,Weather View 32 v70,2013-01-25 01:58:00,
2013-01-24 21:00:00,59.0,54.2,30.27,NNW,329,0.0,1.0,84,0.00,,,0.00,Weather View 32 v70,2013-01-25 02:00:00,
2013-01-24 21:03:00,59.0,54.5,30.27,NNW,329,0.0,1.0,85,0.00,,,0.00,Weather View 32 v70,2013-01-25 02:03:00,
2013-01-24 21:08:00,59.0,54.8,30.27,NNW,329,0.0,1.0,86,0.00,,,0.00,Weather View 32 v70,2013-01-25 02:08:00,
2013-01-24 21:13:00,59.0,54.8,30.27,NNW,329,0.0,1.0,86,0.00,,,0.00,Weather View 32 v70,2013-01-25 02:13:00,
2013-01-24 21:18:00,58.0,53.8,30.27,NNW,329,0.0,1.0,86,0.00,,,0.00,Weather View 32 v70,2013-01-25 02:18:00,
2013-01-24 21:23:00,58.0,54.1,30.27,NNW,329,0.0,1.0,87,0.00,,,0.00,Weather View 32 v70,2013-01-25 02:23:00,
2013-01-24 21:28:00,58.0,54.1,30.27,NNW,329,0.0,1.0,87,0.00,,,0.00,Weather View 32 v70,2013-01-25 02:28:00,
2013-01-24 21:33:00,58.0,54.1,30.27,NNW,329,0.0,1.0,87,0.00,,,0.00,Weather View 32 v70,2013-01-25 02:33:00,
2013-01-24 21:38:00,58.0,54.1,30.27,NNW,329,0.0,1.0,87,0.00,,,0.00,Weather View 32 v70,2013-01-25 02:38:00,
2013-01-24 21:43:00,58.0,54.5,30.27,NNW,329,0.0,1.0,88,0.00,,,0.00,Weather View 32 v70,2013-01-25 02:43:00,
2013-01-24 21:48:00,58.0,54.5,30.27,North,360,0.0,1.0,88,0.00,,,0.00,Weather View 32 v70,2013-01-25 02:48:00,
2013-01-24 21:53:00,58.0,54.5,30.27,North,360,0.0,1.0,88,0.00,,,0.00,Weather View 32 v70,2013-01-25 02:53:00,
2013-01-24 21:58:00,57.0,53.5,30.27,NNW,329,0.0,1.0,88,0.00,,,0.00,Weather View 32 v70,2013-01-25 02:58:00,
2013-01-24 22:00:00,57.0,53.5,30.27,NNW,329,0.0,1.0,88,0.00,,,0.00,Weather View 32 v70,2013-01-25 03:00:00,
2013-01-24 22:03:00,57.0,53.5,30.27,NNW,329,0.0,0.0,88,0.00,,,0.00,Weather View 32 v70,2013-01-25 03:03:00,
2013-01-24 22:08:00,57.0,53.5,30.27,NNW,329,0.0,0.0,88,0.00,,,0.00,Weather View 32 v70,2013-01-25 03:08:00,
2013-01-24 22:13:00,57.0,53.8,30.27,NNW,329,0.0,0.0,89,0.00,,,0.00,Weather View 32 v70,2013-01-25 03:13:00,
2013-01-24 22:18:00,57.0,53.8,30.28,NNW,329,0.0,0.0,89,0.00,,,0.00,Weather View 32 v70,2013-01-25 03:18:00,
2013-01-24 22:23:00,57.0,53.8,30.28,NNW,329,0.0,0.0,89,0.00,,,0.00,Weather View 32 v70,2013-01-25 03:23:00,
2013-01-24 22:28:00,56.0,53.1,30.28,North,360,0.0,0.0,90,0.00,,,0.00,Weather View 32 v70,2013-01-25 03:28:00,
2013-01-24 22:33:00,56.0,52.8,30.27,North,360,0.0,0.0,89,0.00,,,0.00,Weather View 32 v70,2013-01-25 03:33:00,
2013-01-24 22:38:00,56.0,52.8,30.27,NNW,329,0.0,0.0,89,0.00,,,0.00,Weather View 32 v70,2013-01-25 03:38:00,
2013-01-24 22:43:00,56.0,53.1,30.28,NNW,329,0.0,0.0,90,0.00,,,0.00,Weather View 32 v70,2013-01-25 03:43:00,
2013-01-24 22:48:00,55.0,52.1,30.28,NNW,329,0.0,0.0,90,0.00,,,0.00,Weather View 32 v70,2013-01-25 03:48:00,
2013-01-24 22:53:00,55.0,52.1,30.28,NNW,329,0.0,0.0,90,0.00,,,0.00,Weather View 32 v70,2013-01-25 03:53:00,
2013-01-24 22:58:00,55.0,52.1,30.27,NNW,329,0.0,0.0,90,0.00,,,0.00,Weather View 32 v70,2013-01-25 03:58:00,
2013-01-24 23:00:00,55.0,52.1,30.28,NNW,329,0.0,0.0,90,0.00,,,0.00,Weather View 32 v70,2013-01-25 04:00:00,
2013-01-24 23:03:00,55.0,52.4,30.28,North,360,0.0,0.0,91,0.00,,,0.00,Weather View 32 v70,2013-01-25 04:03:00,
2013-01-24 23:08:00,55.0,52.4,30.28,NNW,329,0.0,0.0,91,0.00,,,0.00,Weather View 32 v70,2013-01-25 04:08:00,
2013-01-24 23:13:00,55.0,52.4,30.28,NNW,329,0.0,0.0,91,0.00,,,0.00,Weather View 32 v70,2013-01-25 04:13:00,
2013-01-24 23:18:00,54.0,51.4,30.28,NNW,329,0.0,0.0,91,0.00,,,0.00,Weather View 32 v70,2013-01-25 04:18:00,
2013-01-24 23:23:00,54.0,51.4,30.28,North,360,0.0,0.0,91,0.00,,,0.00,Weather View 32 v70,2013-01-25 04:23:00,
2013-01-24 23:28:00,54.0,51.4,30.28,NNW,329,0.0,0.0,91,0.00,,,0.00,Weather View 32 v70,2013-01-25 04:28:00,
2013-01-24 23:33:00,54.0,51.4,30.28,NNW,329,0.0,0.0,91,0.00,,,0.00,Weather View 32 v70,2013-01-25 04:33:00,
2013-01-24 23:38:00,54.0,51.4,30.27,NNW,329,0.0,0.0,91,0.00,,,0.00,Weather View 32 v70,2013-01-25 04:38:00,
2013-01-24 23:43:00,54.0,51.7,30.27,North,360,0.0,0.0,92,0.00,,,0.00,Weather View 32 v70,2013-01-25 04:43:00,
2013-01-24 23:48:00,54.0,51.7,30.27,NNW,329,0.0,0.0,92,0.00,,,0.00,Weather View 32 v70,2013-01-25 04:48:00,
2013-01-24 23:53:00,53.0,50.7,30.27,NNW,329,0.0,0.0,92,0.00,,,0.00,Weather View 32 v70,2013-01-25 04:53:00,
2013-01-24 23:58:00,53.0,50.7,30.27,North,360,0.0,0.0,92,0.00,,,0.00,Weather View 32 v70,2013-01-25 04:58:00,